GW3329 Weather Reports


Display with metric or nautical units.
time (UTC)temp
F
wind
direction
speed
MPH
gust
MPH
rain 1hr
in
rain 24hr
in
rain mn
in
humidity
%
barometer
mb
20260906041328 67 173 0.0 0.0 0.00 0.00 0.00 79 1017.7
20260906040828 67 169 0.0 0.0 0.00 0.00 0.00 78 1017.5
20260906040323 67 155 0.0 0.0 0.00 0.00 0.00 77 1017.6
20260906035819 68 161 0.0 0.0 0.00 0.00 0.00 77 1017.4
20260906035314 68 175 0.0 0.0 0.00 0.00 0.00 78 1017.5
20260906034809 68 176 0.0 1.0 0.00 0.00 0.00 78 1017.4
20260906034304 68 171 0.0 0.0 0.00 0.00 0.00 78 1017.3
20260906033800 68 171 0.0 0.0 0.00 0.00 0.00 76 1017.3
20260906033259 68 163 0.0 0.0 0.00 0.00 0.00 75 1017.3
20260906032756 68 155 0.0 0.0 0.00 0.00 0.00 73 1017.0
20260906032255 68 155 0.0 0.0 0.00 0.00 0.00 74 1017.2
20260906031750 68 156 0.0 0.0 0.00 0.00 0.00 74 1017.1
20260906031247 68 153 0.0 0.0 0.00 0.00 0.00 74 1017.2
20260906030740 69 151 0.0 0.0 0.00 0.00 0.00 72 1017.2
20260906030235 69 151 0.0 0.0 0.00 0.00 0.00 72 1017.0
20260906025734 69 157 0.0 0.0 0.00 0.00 0.00 73 1017.0
20260906025230 70 157 0.0 0.0 0.00 0.00 0.00 73 1017.2
20260906024728 70 157 0.0 0.0 0.00 0.00 0.00 71 1017.1
20260906024227 70 162 0.0 0.0 0.00 0.00 0.00 71 1017.0
20260906023723 70 157 0.0 0.0 0.00 0.00 0.00 70 1017.1
20260906023218 71 184 0.0 0.0 0.00 0.00 0.00 70 1016.9
20260906022714 71 165 0.0 1.0 0.00 0.00 0.00 70 1016.8
20260906022209 72 162 0.0 1.0 0.00 0.00 0.00 69 1016.8
20260906021705 72 178 0.0 1.0 0.00 0.00 0.00 68 1017.2
20260906021203 72 132 0.0 0.0 0.00 0.00 0.00 67 1016.9
20260906020658 73 147 0.0 1.0 0.00 0.00 0.00 65 1017.0
20260906020153 73 139 0.0 1.0 0.00 0.00 0.00 65 1016.9
20260906015648 74 133 0.0 0.0 0.00 0.00 0.00 64 1016.9
20260906015146 74 140 0.0 3.0 0.00 0.00 0.00 63 1017.0
20260906014641 75 73 1.0 1.0 0.00 0.00 0.00 61 1016.6
20260906014137 75 48 1.0 3.0 0.00 0.00 0.00 59 1016.7
20260906013633 75 47 0.0 2.0 0.00 0.00 0.00 58 1016.7
20260906013128 76 228 1.0 3.0 0.00 0.00 0.00 56 1016.8
20260906012627 77 7 2.0 3.0 0.00 0.00 0.00 54 1016.7
20260906012122 78 185 1.0 3.0 0.00 0.00 0.00 52 1016.8
20260906011618 79 133 0.0 2.0 0.00 0.00 0.00 51 1016.5
20260906011113 80 277 3.0 4.0 0.00 0.00 0.00 49 1016.9
20260906010608 80 186 1.0 1.0 0.00 0.00 0.00 47 1016.6
20260906010104 80 151 2.0 4.0 0.00 0.00 0.00 46 1016.9
20260906005603 81 230 2.0 3.0 0.00 0.00 0.00 44 1016.8
20260906005102 82 274 5.0 6.0 0.00 0.00 0.00 44 1016.8
20260906004556 82 262 2.0 3.0 0.00 0.00 0.00 44 1016.7
20260906004051 82 241 1.0 2.0 0.00 0.00 0.00 44 1016.6
20260906003546 83 158 1.0 6.0 0.00 0.00 0.00 43 1016.4
20260906003042 83 142 1.0 4.0 0.00 0.00 0.00 42 1016.4
20260906002537 83 251 2.0 3.0 0.00 0.00 0.00 42 1016.3
20260906002032 83 212 2.0 4.0 0.00 0.00 0.00 42 1016.7
20260906001527 83 161 0.0 2.0 0.00 0.00 0.00 42 1016.4
20260906001021 83 77 2.0 8.0 0.00 0.00 0.00 41 1016.4
20260906000518 84 287 1.0 4.0 0.00 0.00 0.00 40 1016.5
20260906000018 84 196 1.0 2.0 0.00 0.00 0.00 39 1016.3
20260905235512 85 303 4.0 6.0 0.00 0.00 0.00 39 1016.4
20260905235007 85 283 1.0 4.0 0.00 0.00 0.00 38 1016.5
20260905234502 85 230 2.0 6.0 0.00 0.00 0.00 40 1016.5
20260905233956 85 256 3.0 6.0 0.00 0.00 0.00 40 1016.3
20260905233452 85 155 1.0 4.0 0.00 0.00 0.00 41 1016.5
20260905232950 85 229 2.0 4.0 0.00 0.00 0.00 41 1016.5
20260905232447 85 109 1.0 7.0 0.00 0.00 0.00 43 1016.5
20260905231943 85 231 2.0 4.0 0.00 0.00 0.00 42 1016.6
20260905231438 86 175 4.0 8.0 0.00 0.00 0.00 43 1016.2
20260905230934 86 293 3.0 4.0 0.00 0.00 0.00 43 1016.5
20260905230433 86 207 1.0 4.0 0.00 0.00 0.00 45 1016.4
20260905225931 86 189 2.0 8.0 0.00 0.00 0.00 44 1016.6
20260905225426 86 297 4.0 4.0 0.00 0.00 0.00 42 1016.5
20260905224921 87 357 2.0 4.0 0.00 0.00 0.00 41 1016.4
20260905224417 86 19 1.0 3.0 0.00 0.00 0.00 42 1016.5
20260905223917 87 317 6.0 7.0 0.00 0.00 0.00 42 1016.5
20260905223415 87 167 1.0 4.0 0.00 0.00 0.00 42 1016.6
20260905222915 87 205 3.0 9.0 0.00 0.00 0.00 42 1016.6
20260905222414 87 113 2.0 7.0 0.00 0.00 0.00 40 1016.6
20260905221910 87 6 3.0 7.0 0.00 0.00 0.00 43 1016.7
20260905221407 88 137 0.0 2.0 0.00 0.00 0.00 45 1016.7
20260905220902 87 153 1.0 2.0 0.00 0.00 0.00 46 1016.8
20260905220358 88 111 1.0 3.0 0.00 0.00 0.00 46 1016.9
20260905215857 87 159 2.0 7.0 0.00 0.00 0.00 47 1017.0
20260905215353 87 127 0.0 2.0 0.00 0.00 0.00 49 1016.8
20260905214849 87 49 1.0 6.0 0.00 0.00 0.00 48 1016.8
20260905214344 87 230 2.0 7.0 0.00 0.00 0.00 49 1017.0
20260905213839 87 167 3.0 8.0 0.00 0.00 0.00 49 1016.9
20260905213336 87 229 1.0 3.0 0.00 0.00 0.00 49 1016.9
20260905212835 86 81 1.0 3.0 0.00 0.00 0.00 51 1017.0
20260905212330 87 265 2.0 9.0 0.00 0.00 0.00 50 1016.9
20260905211824 87 76 0.0 2.0 0.00 0.00 0.00 51 1017.1
20260905211320 87 59 1.0 9.0 0.00 0.00 0.00 51 1017.0
20260905210817 87 45 0.0 4.0 0.00 0.00 0.00 50 1017.2
20260905210316 87 230 2.0 7.0 0.00 0.00 0.00 48 1017.3
20260905205815 87 233 2.0 6.0 0.00 0.00 0.00 49 1017.1
20260905205310 87 99 2.0 6.0 0.00 0.00 0.00 48 1017.3
20260905204809 87 5 1.0 4.0 0.00 0.00 0.00 47 1017.2
20260905204305 87 114 0.0 4.0 0.00 0.00 0.00 47 1017.3
20260905203804 87 221 4.0 8.0 0.00 0.00 0.00 46 1017.4
20260905203300 87 65 0.0 6.0 0.00 0.00 0.00 46 1017.4
20260905202755 87 48 1.0 4.0 0.00 0.00 0.00 44 1017.3
20260905202250 87 167 0.0 2.0 0.00 0.00 0.00 45 1017.6
20260905201745 87 5 1.0 4.0 0.00 0.00 0.00 46 1017.5
20260905201240 87 47 1.0 7.0 0.00 0.00 0.00 45 1017.5
20260905200736 87 146 1.0 8.0 0.00 0.00 0.00 45 1017.6
20260905200231 88 200 1.0 7.0 0.00 0.00 0.00 45 1017.6
20260905195729 88 240 3.0 7.0 0.00 0.00 0.00 43 1017.5
20260905195224 88 271 2.0 6.0 0.00 0.00 0.00 43 1017.8
20260905194720 88 124 0.0 4.0 0.00 0.00 0.00 41 1017.8
20260905194219 88 231 4.0 4.0 0.00 0.00 0.00 41 1017.7
20260905193713 88 87 1.0 2.0 0.00 0.00 0.00 34 1017.8
20260905193208 87 144 2.0 2.0 0.00 0.00 0.00 35 1017.8
20260905192704 87 108 1.0 1.0 0.00 0.00 0.00 38 1017.8
20260905192200 86 95 0.0 1.0 0.00 0.00 0.00 38 1018.0
20260905191700 86 61 1.0 3.0 0.00 0.00 0.00 38 1018.1
20260905191157 86 102 1.0 3.0 0.00 0.00 0.00 39 1018.0
20260905190657 86 147 0.0 4.0 0.00 0.00 0.00 40 1018.1
20260905190156 86 122 1.0 2.0 0.00 0.00 0.00 40 1018.1
20260905185655 86 157 1.0 2.0 0.00 0.00 0.00 40 1018.2
20260905185149 85 70 1.0 2.0 0.00 0.00 0.00 39 1018.5
20260905184649 85 146 0.0 0.0 0.00 0.00 0.00 40 1018.5
20260905184148 84 126 0.0 1.0 0.00 0.00 0.00 39 1018.2
20260905183642 84 43 0.0 1.0 0.00 0.00 0.00 40 1018.4
20260905183137 84 140 1.0 3.0 0.00 0.00 0.00 41 1018.3
20260905182636 84 166 0.0 2.0 0.00 0.00 0.00 39 1018.5
20260905182131 83 150 1.0 6.0 0.00 0.00 0.00 40 1018.6
20260905181626 83 85 0.0 1.0 0.00 0.00 0.00 42 1018.6
20260905181125 83 70 2.0 4.0 0.00 0.00 0.00 41 1018.7
20260905180620 82 65 1.0 2.0 0.00 0.00 0.00 43 1018.7
20260905180115 82 98 1.0 2.0 0.00 0.00 0.00 42 1018.7
20260905175615 82 157 0.0 1.0 0.00 0.00 0.00 43 1018.7
20260905175110 81 105 2.0 4.0 0.00 0.00 0.00 43 1018.6
20260905174605 81 230 1.0 3.0 0.00 0.00 0.00 44 1018.7
20260905174101 81 134 0.0 1.0 0.00 0.00 0.00 48 1018.7
20260905173557 80 85 0.0 1.0 0.00 0.00 0.00 49 1018.8
20260905173052 80 199 2.0 3.0 0.00 0.00 0.00 46 1018.6
20260905172551 80 140 2.0 3.0 0.00 0.00 0.00 50 1018.5
20260905172047 79 154 2.0 3.0 0.00 0.00 0.00 51 1018.6
20260905171543 79 87 1.0 2.0 0.00 0.00 0.00 54 1018.5
20260905171038 78 145 0.0 1.0 0.00 0.00 0.00 54 1018.4
20260905170535 78 75 0.0 1.0 0.00 0.00 0.00 55 1018.5
20260905170030 79 135 1.0 1.0 0.00 0.00 0.00 53 1018.4
20260905165524 77 140 0.0 2.0 0.00 0.00 0.00 58 1018.5
20260905165019 77 117 0.0 2.0 0.00 0.00 0.00 61 1018.6
20260905164514 77 174 2.0 3.0 0.00 0.00 0.00 60 1018.5
20260905164009 77 163 1.0 1.0 0.00 0.00 0.00 59 1018.3
20260905163505 77 91 1.0 1.0 0.00 0.00 0.00 60 1018.4
20260905163001 77 134 2.0 2.0 0.00 0.00 0.00 61 1018.3
20260905162456 76 117 1.0 2.0 0.00 0.00 0.00 63 1018.1
20260905161951 75 119 1.0 1.0 0.00 0.00 0.00 64 1018.2
20260905161450 75 123 0.0 2.0 0.00 0.00 0.00 68 1018.4
20260905160948 74 111 0.0 1.0 0.00 0.00 0.00 69 1018.4
20260905160442 74 142 1.0 2.0 0.00 0.00 0.00 69 1018.3
20260905155941 73 134 0.0 1.0 0.00 0.00 0.00 73 1018.4
20260905155437 73 81 2.0 3.0 0.00 0.00 0.00 72 1018.5
20260905154935 71 142 0.0 2.0 0.00 0.00 0.00 75 1018.3
20260905154431 71 118 0.0 1.0 0.00 0.00 0.00 78 1018.3
20260905153926 71 98 2.0 3.0 0.00 0.00 0.00 76 1018.1
20260905153423 70 128 0.0 2.0 0.00 0.00 0.00 78 1018.1
20260905152922 69 145 1.0 1.0 0.00 0.00 0.00 79 1018.3
20260905152422 68 69 2.0 2.0 0.00 0.00 0.00 81 1018.2
20260905151917 68 105 1.0 2.0 0.00 0.00 0.00 82 1018.2
20260905151413 68 95 2.0 3.0 0.00 0.00 0.00 82 1018.2
20260905150912 68 107 2.0 2.0 0.00 0.00 0.00 83 1018.0
20260905150407 68 107 0.0 1.0 0.00 0.00 0.00 83 1017.9
20260905145903 67 104 1.0 1.0 0.00 0.00 0.00 83 1018.2
20260905145358 67 100 1.0 2.0 0.00 0.00 0.00 84 1017.9
20260905144858 66 106 0.0 0.0 0.00 0.00 0.00 85 1017.8
20260905144353 66 105 1.0 1.0 0.00 0.00 0.00 85 1017.9
20260905143852 65 109 1.0 1.0 0.00 0.00 0.00 85 1017.7
20260905143346 64 125 0.0 0.0 0.00 0.00 0.00 87 1017.8
20260905142846 64 140 0.0 2.0 0.00 0.00 0.00 88 1017.7
20260905142344 63 122 0.0 0.0 0.00 0.00 0.00 89 1017.9
20260905141840 63 134 0.0 0.0 0.00 0.00 0.00 90 1017.8
20260905141336 62 130 0.0 0.0 0.00 0.00 0.00 92 1017.6
20260905140832 61 132 0.0 0.0 0.00 0.00 0.00 93 1017.6
20260905140332 60 135 0.0 0.0 0.00 0.00 0.00 95 1017.6
20260905135830 59 137 0.0 0.0 0.00 0.00 0.00 96 1017.6
20260905135326 59 142 0.0 0.0 0.00 0.00 0.00 96 1017.5
20260905134821 58 147 0.0 0.0 0.00 0.00 0.00 96 1017.4
20260905134314 58 143 0.0 0.0 0.00 0.00 0.00 96 1017.4
20260905133809 59 153 0.0 0.0 0.00 0.00 0.00 96 1017.1
20260905133304 59 144 0.0 0.0 0.00 0.00 0.00 96 1017.1
20260905132803 59 126 0.0 0.0 0.00 0.00 0.00 96 1017.0
20260905132259 59 140 0.0 0.0 0.00 0.00 0.00 96 1017.1
20260905131753 59 151 0.0 0.0 0.00 0.00 0.00 96 1017.1
20260905131249 59 135 0.0 0.0 0.00 0.00 0.00 96 1017.0
20260905130744 59 138 0.0 0.0 0.00 0.00 0.00 96 1016.9
20260905130243 59 138 0.0 0.0 0.00 0.00 0.00 96 1016.9
20260905125738 59 157 0.0 1.0 0.00 0.00 0.00 96 1017.1
20260905125233 59 135 0.0 0.0 0.00 0.00 0.00 96 1017.3
20260905124730 59 135 0.0 0.0 0.00 0.00 0.00 96 1017.1
20260905124225 59 120 0.0 0.0 0.00 0.00 0.00 96 1017.0
20260905123720 59 125 0.0 0.0 0.00 0.00 0.00 96 1016.8
20260905123217 59 159 2.0 2.0 0.00 0.00 0.00 97 1016.8
20260905122717 59 151 0.0 0.0 0.00 0.00 0.00 97 1017.0
20260905122211 59 144 0.0 0.0 0.00 0.00 0.00 97 1016.7
20260905121706 59 146 0.0 0.0 0.00 0.00 0.00 97 1016.7
20260905121202 59 144 0.0 0.0 0.00 0.00 0.00 97 1017.0
20260905120701 59 136 0.0 0.0 0.00 0.00 0.00 97 1016.9
20260905120156 59 147 0.0 0.0 0.00 0.00 0.00 97 1017.0
20260905115656 59 153 1.0 1.0 0.00 0.00 0.00 97 1016.9
20260905115151 59 143 0.0 0.0 0.00 0.00 0.00 97 1016.8
20260905114651 59 138 0.0 0.0 0.00 0.00 0.00 97 1017.1
20260905114149 59 137 0.0 0.0 0.00 0.00 0.00 96 1017.0
20260905113649 59 133 0.0 0.0 0.00 0.00 0.00 96 1016.9
20260905113145 59 151 0.0 0.0 0.00 0.00 0.00 96 1017.0
20260905112638 59 161 0.0 0.0 0.00 0.00 0.00 96 1017.2
20260905112135 59 160 0.0 0.0 0.00 0.00 0.00 96 1017.0
20260905111634 60 142 0.0 0.0 0.00 0.00 0.00 96 1016.9
20260905111134 60 137 0.0 0.0 0.00 0.00 0.00 96 1017.0
20260905110633 60 143 0.0 0.0 0.00 0.00 0.00 96 1016.9
20260905110128 60 143 0.0 0.0 0.00 0.00 0.00 96 1017.1
20260905105623 60 99 0.0 1.0 0.00 0.00 0.00 96 1017.3
20260905105122 60 133 0.0 1.0 0.00 0.00 0.00 96 1017.0
20260905104618 60 93 0.0 1.0 0.00 0.00 0.00 96 1017.0
20260905104113 60 97 1.0 2.0 0.00 0.00 0.00 96 1017.2
20260905103609 60 127 0.0 0.0 0.00 0.00 0.00 96 1017.0
20260905103104 60 131 0.0 0.0 0.00 0.00 0.00 97 1016.9
20260905102554 60 94 0.0 0.0 0.00 0.00 0.00 97 1017.0
20260905102051 59 127 0.0 0.0 0.00 0.00 0.00 97 1017.2
20260905101549 59 144 0.0 0.0 0.00 0.00 0.00 97 1017.1
20260905101047 59 138 0.0 0.0 0.00 0.00 0.00 97 1017.0
20260905100544 59 147 0.0 0.0 0.00 0.00 0.00 97 1017.0
20260905100043 60 136 0.0 0.0 0.00 0.00 0.00 98 1017.2
20260905095538 60 129 0.0 0.0 0.00 0.00 0.00 98 1017.3
20260905095033 60 145 0.0 0.0 0.00 0.00 0.00 98 1017.2
20260905094528 60 150 0.0 0.0 0.00 0.00 0.00 98 1017.0
20260905094027 60 129 0.0 0.0 0.00 0.00 0.00 98 1017.2
20260905093522 60 138 0.0 0.0 0.00 0.00 0.00 98 1017.4
20260905093019 60 141 0.0 0.0 0.00 0.00 0.00 98 1017.2
20260905092519 59 151 0.0 0.0 0.00 0.00 0.00 98 1017.2
20260905092015 59 147 0.0 0.0 0.00 0.00 0.00 98 1017.1
20260905091513 59 158 0.0 0.0 0.00 0.00 0.00 98 1017.1
20260905091008 59 188 0.0 0.0 0.00 0.00 0.00 98 1017.4
20260905090502 59 145 0.0 0.0 0.00 0.00 0.00 98 1017.3
20260905090002 60 145 0.0 0.0 0.00 0.00 0.00 98 1017.3
20260905085501 60 145 0.0 0.0 0.00 0.00 0.00 98 1017.3
20260905084957 60 145 0.0 0.0 0.00 0.00 0.00 98 1017.6
20260905084456 61 134 0.0 0.0 0.00 0.00 0.00 98 1017.5
20260905083952 61 158 0.0 0.0 0.00 0.00 0.00 98 1017.6
20260905083447 62 158 0.0 0.0 0.00 0.00 0.00 98 1017.7
20260905082943 62 157 0.0 0.0 0.00 0.00 0.00 98 1017.5
20260905082439 62 134 0.0 0.0 0.00 0.00 0.00 98 1017.7
20260905081934 62 131 0.0 0.0 0.00 0.00 0.00 98 1017.8
20260905081433 61 161 0.0 0.0 0.00 0.00 0.00 98 1017.7
20260905080932 61 161 0.0 0.0 0.00 0.00 0.00 98 1017.7
20260905080427 61 160 0.0 0.0 0.00 0.00 0.00 98 1017.6
20260905075926 61 160 0.0 0.0 0.00 0.00 0.00 98 1017.8
20260905075420 61 167 0.0 0.0 0.00 0.00 0.00 98 1017.8
20260905074919 61 175 0.0 0.0 0.00 0.00 0.00 97 1017.8
20260905074415 60 161 0.0 0.0 0.00 0.00 0.00 96 1017.6
20260905073911 61 161 0.0 0.0 0.00 0.00 0.00 96 1017.9
20260905073406 61 161 0.0 0.0 0.00 0.00 0.00 97 1017.7
20260905072902 61 161 0.0 0.0 0.00 0.00 0.00 96 1017.9
20260905072356 61 161 0.0 0.0 0.00 0.00 0.00 96 1017.9
20260905071852 62 167 0.0 0.0 0.00 0.00 0.00 96 1017.7
20260905071343 61 179 0.0 0.0 0.00 0.00 0.00 96 1017.7
20260905070842 61 164 0.0 0.0 0.00 0.00 0.00 94 1017.7
20260905070339 62 166 0.0 0.0 0.00 0.00 0.00 94 1017.6
20260905065838 62 215 0.0 0.0 0.00 0.00 0.00 94 1017.6
20260905065336 62 185 0.0 0.0 0.00 0.00 0.00 94 1017.8
20260905064832 62 159 0.0 0.0 0.00 0.00 0.00 94 1017.7
20260905064328 62 174 0.0 0.0 0.00 0.00 0.00 94 1017.6
20260905063826 62 167 0.0 0.0 0.00 0.00 0.00 94 1017.5
20260905063322 62 162 0.0 0.0 0.00 0.00 0.00 94 1017.6
20260905062819 61 161 0.0 0.0 0.00 0.00 0.00 94 1017.4
20260905062313 62 158 0.0 0.0 0.00 0.00 0.00 94 1017.4
20260905061808 61 171 0.0 0.0 0.00 0.00 0.00 93 1017.4
20260905061307 62 146 0.0 0.0 0.00 0.00 0.00 93 1017.4
20260905060802 62 156 0.0 0.0 0.00 0.00 0.00 93 1017.7
20260905060259 62 156 0.0 0.0 0.00 0.00 0.00 93 1017.5
20260905055757 62 156 0.0 0.0 0.00 0.00 0.00 92 1017.4
20260905055252 62 157 0.0 0.0 0.00 0.00 0.00 92 1017.5
20260905054747 63 168 0.0 0.0 0.00 0.00 0.00 92 1017.5
20260905054244 63 170 0.0 0.0 0.00 0.00 0.00 93 1017.3
20260905053743 63 168 0.0 0.0 0.00 0.00 0.00 94 1017.4
20260905053238 63 163 0.0 0.0 0.00 0.00 0.00 94 1017.6
20260905052738 63 168 0.0 0.0 0.00 0.00 0.00 95 1017.5
20260905052233 63 153 0.0 0.0 0.00 0.00 0.00 94 1017.8
20260905051732 63 158 0.0 0.0 0.00 0.00 0.00 94 1017.5
20260905051229 63 169 0.0 0.0 0.00 0.00 0.00 94 1017.5
20260905050725 64 158 0.0 0.0 0.00 0.00 0.00 94 1017.7
20260905050222 64 167 0.0 0.0 0.00 0.00 0.00 94 1017.8
20260905045721 64 169 0.0 0.0 0.00 0.00 0.00 94 1017.6
20260905045217 63 162 0.0 0.0 0.00 0.00 0.00 93 1017.8
20260905044712 64 159 0.0 0.0 0.00 0.00 0.00 94 1017.6
20260905044207 64 162 0.0 0.0 0.00 0.00 0.00 93 1017.4
20260905043706 64 164 0.0 0.0 0.00 0.00 0.00 94 1017.5
20260905043201 64 164 0.0 0.0 0.00 0.00 0.00 94 1017.6
20260905042701 64 171 0.0 0.0 0.00 0.00 0.00 94 1017.4
20260905042155 64 175 0.0 0.0 0.00 0.00 0.00 94 1017.4
20260905041651 64 168 0.0 0.0 0.00 0.00 0.00 94 1017.3